Weather in Lesnoye

Russia / Altai Krai     52°28′08″N   85°15′06″E
temp.,
°C
wind,
m/s
gust,
m/s
humid.,
%
clouds,
%
prec.,
mm/h
press.,
hPa
HPBL,
m
26 october, tue
tue2601:00+6sw22605 0.0 102115
04:00+5sse116170 0.0 102010
07:00+5ese336499 0.0 101841
10:00+7ese376399 0.0 1015181
13:00+12se3447100 0.0 1012307
16:00+13sw234585 0.0 1010231
19:00+9s225443 0.0 101012
22:00+8wsw395521 0.0 1012163
27 october, wed
wed2701:00+11wsw816405 0.0 1014662
04:00+6wnw61176100 0.0 1020778
07:00+5wnw5958100 0.0 10251143
10:00+3nw4559100 0.0 1027628
13:00+4wnw2345100 0.0 1028955
16:00+4wnw2241100 0.0 10271003
19:00+3nnw1146100 0.0 102738
22:00+2wnw1156100 0.0 102845
28 october, thu
thu2801:000nw1152100 0.0 102912
04:00−1n115355 0.0 103010
07:00−2ene1155100 0.0 103010
10:000e225382 0.0 1030144
13:00+4e1149100 0.0 1029559
16:00+5sse115041 0.0 1028629
19:00+2se016429 0.0 102810
22:00+1se228311 0.0 102819
29 october, fri
fri2901:00+2se2386100 0.0 102865
04:00+2se2482100 0.0 1027116
07:00+3se2581100 0.0 1027141
10:00+4sse2374100 0.0 1027124
13:00+7ssw11625 0.0 1026185
16:00+10sw235118 0.0 1026452
19:00+6se22645 0.0 102610
22:00+5s22705 0.0 102711
30 october, sat
sat3001:00+4ssw228066 0.0 102710
04:00+4s2285100 0.0 102711
07:00+3s228582 0.0 102723
10:00+5sw3967100 0.0 1027305
13:00+10wsw81651100 0.0 10271704
16:00+8w71441100 0.0 10281393
19:00+5w5945100 0.0 1030448
22:00+3nw3780100 0.0 1032585